Regional Weather Roundup
Issued by NWS

Home | Current Version | Previous Version | Text Only | Print | Product List | Glossary Off
Versions: 1 2 3 4 5 6 7 8 9 10 11 12 13 14 15 16 17 18 19 20 21 22 23 24 25 26 27 28 29 30 31 32 33 34 35 36 37 38 39 40 41 42 43 44 45 46 47 48 49 50

096
ASUS43 KMKX 061800
RWRWI

WISCONSIN REGIONAL WEATHER ROUNDUP
NATIONAL WEATHER SERVICE MILWAUKEE/SULLIVAN WI
100 PM CDT FRI MAY 06 2016

NOTE: "FAIR" INDICATES FEW OR NO CLOUDS BELOW 12,000 FEET WITH NO
SIGNIFICANT WEATHER AND/OR OBSTRUCTIONS TO VISIBILITY.

WIZ001-002-006>008-014>016-023>028-061900-
NORTHWEST WISCONSIN

CITY           SKY/WX    TMP DP  RH WIND       PRES   REMARKS
SUPERIOR ARPT  SUNNY     91  46  21 SW17G26   29.68F HX  87
ASHLAND        SUNNY     91  37  15 SW12G23   29.70F HX  87
6HR MIN TEMP:  64; 6HR MAX TEMP:  92;

HAYWARD        SUNNY     87  42  20 W10G22    29.75F HX  84
6HR MIN TEMP:  49; 6HR MAX TEMP:  87;

SIREN          SUNNY     85  46  25 W13       29.77F HX  82
CUMBERLAND     SUNNY     82  41  23 SW14      29.79F HX  80
RICE LAKE      SUNNY     85  42  22 SW16      29.81F HX  82
CHETEK         SUNNY     85  46  25 W8G16     29.79F HX  82
LADYSMITH      SUNNY     85  40  20 SW12G21   29.81F HX  82
EAU CLAIRE     NOT AVBL
MENOMONIE      SUNNY     86  49  27 W12       29.81F HX  83
NEW RICHMOND   SUNNY     82  49  31 SW12      29.80F HX  80
OSCEOLA        SUNNY     83  49  30 SW10G18   29.82F HX  81
$$

WIZ003>005-009-010-017-018-061900-
NORTH CENTRAL WISCONSIN

CITY           SKY/WX    TMP DP  RH WIND       PRES   REMARKS
MANITOWISH WTR SUNNY     85  41  21 W17G25    29.77F HX  82
ARBOR VITAE    SUNNY     85  35  17 NW15      29.79F HX  82
WOODRUFF       SUNNY     85  35  17 NW15      29.79F HX  82
RHINELANDER    SUNNY     86  37  17 NW16G22   29.79F HX  83
6HR MIN TEMP:  55; 6HR MAX TEMP:  87;

EAGLE RIVER    SUNNY     84  33  16 W7G13     29.79F HX  81
LAND O LAKES   SUNNY     85  36  17 NW9G17    29.79F HX  82
PHILLIPS       SUNNY     84  42  22 W9G18     29.79F HX  81
TOMAHAWK       SUNNY     83  37  18 W10G17    29.81F HX  81
MEDFORD        SUNNY     81  45  28 W9G17     29.82F HX  80
MERRILL        SUNNY     84  39  20 W16G24    29.81F HX  81
$$

WIZ029-030-035-036-043>047-061900-
CENTRAL WISCONSIN

CITY           SKY/WX    TMP DP  RH WIND       PRES   REMARKS
WAUSAU         SUNNY     84  44  24 W13       29.80F HX  82
6HR MIN TEMP:  53; 6HR MAX TEMP:  84;

MOSINEE        SUNNY     81  46  30 W9G17     29.84F HX  80
MARSHFIELD     SUNNY     86  43  22 W13G23    29.81F HX  83
6HR MIN TEMP:  52; 6HR MAX TEMP:  86;

STEVENS POINT  SUNNY     77  45  31 W10G16    29.84F
WAUPACA        SUNNY     80  41  24 W10       29.84F
WAUTOMA        SUNNY     81  46  29 VRB5      29.84F HX  80
6HR MIN TEMP:  50; 6HR MAX TEMP:  81;

WISC RAPIDS    SUNNY     85  40  20 W8        29.84F HX  82
6HR MIN TEMP:  52; 6HR MAX TEMP:  85; 6HR PCP: TRACE;

CAMP DOUGLAS   NOT AVBL
$$

WIZ011>013-019>022-031-037>040-048>050-061900-
NORTHEAST WISCONSIN

CITY           SKY/WX    TMP DP  RH WIND       PRES   REMARKS
ANTIGO         SUNNY     79  47  33 CALM      29.83F
SHAWANO        SUNNY     79  43  28 SW6       29.82F
OCONTO         SUNNY     73  49  42 S9        29.80F
STURGEON BAY   SUNNY     70  46  43 S14       29.84F
6HR MIN TEMP:  48; 6HR MAX TEMP:  70;

GREEN BAY      SUNNY     80  50  34 W10       29.81F HX  80
6HR MIN TEMP:  52; 6HR MAX TEMP:  80;

MANITOWOC      NOT AVBL
APPLETON       MOSUNNY   79  43  27 W8        29.82F
CLINTONVILLE   SUNNY     77  43  29 W7        29.82F
OSHKOSH        SUNNY     77  46  33 W8        29.83F
6HR MIN TEMP:  52; 6HR MAX TEMP:  78;

$$

WIZ032>034-041-042-053>061-061900-
SOUTHWEST WISCONSIN

CITY           SKY/WX    TMP DP  RH WIND       PRES   REMARKS
LA CROSSE      SUNNY     86  50  28 VRB6      29.83F HX  84
6HR MIN TEMP:  53; 6HR MAX TEMP:  86;

SPARTA         SUNNY     82  47  28 SW9       29.86F HX  80
VIROQUA        SUNNY     81  44  27 W8        29.90F
BOSCOBEL       SUNNY     82  48  30 SW7       29.88F HX  81
6HR MIN TEMP:  47; 6HR MAX TEMP:  82;

PRAIRIE DU CHI SUNNY     83  42  22 W9        29.88F HX  81
PLATTEVILLE    SUNNY     77  48  35 SW9       29.92F
$$

WIZ056-057-062-063-064-067-068-061900-
SOUTH CENTRAL WISCONSIN

CITY           SKY/WX    TMP DP  RH WIND       PRES   REMARKS
REEDSBURG      SUNNY     77  49  37 SW9       29.87F
BARABOO/DELLS  SUNNY     78  41  26 SW9       29.88F
LONE ROCK      NOT AVBL
MINERAL POINT  SUNNY     77  46  33 SW10      29.92F
MADISON        MOSUNNY   75  45  34 SW7       29.87F
6HR MIN TEMP:  52; 6HR MAX TEMP:  76; 6HR PCP: TRACE;

MIDDLETON      MOSUNNY   78  46  32 W8        29.89F
WATERTOWN      SUNNY     77  49  38 W5        29.87F
MONROE         SUNNY     73  46  38 SW12      29.92F
JANESVILLE     MOSUNNY   79  46  31 W9        29.89F
$$

WIZ051-052-058>065-066-070>072-061900-
SOUTHEAST WISCONSIN

CITY           SKY/WX    TMP DP  RH WIND       PRES   REMARKS
MILWAUKEE      MOSUNNY   76  43  30 SW8       29.87F
6HR MIN TEMP:  52; 6HR MAX TEMP:  77;

WAUKESHA       SUNNY     75  45  33 W7        29.87F
MILWAUKEE/TIMM NOT AVBL
RACINE         SUNNY     70  44  39 SE9       29.89F
6HR MIN TEMP:  53; 6HR MAX TEMP:  77; 6HR PCP: TRACE;

BURLINGTON     SUNNY     76  43  31 W8        29.89F
KENOSHA        SUNNY     76  45  33 S10       29.89F
6HR MIN TEMP:  51; 6HR MAX TEMP:  76;

FOND DU LAC    SUNNY     80  46  30 W12       29.84F
6HR MIN TEMP:  53; 6HR MAX TEMP:  80;

SHEBOYGAN      SUNNY     77  48  35 S9        29.83F
6HR MIN TEMP:  48; 6HR MAX TEMP:  77;

WEST BEND      SUNNY     75  43  31 W9        29.86F
JUNEAU         SUNNY     75  47  36 SW7       29.88F
$$

LSZ147-162-061900-
LAKE SUPERIOR

STATION/POSITION TIME  TEMP    WIND        PRES    WAVE
                       AIR SEA DIR/SP/G            HT/PER
                 (UTC) (F)     (DEG/KT/KT) (MB)    (FT/S)
W MID LAKE BUOY  1650   44 37  220/  6/  6 1006.5F   0
DEVILS ISLAND    1700   70     230/ 19/ 22 1005.4F
SAXON HARBOR     1740   87     260/ 12/ 23 1005.4F
$$

LMZ867-665-643>646-061900-
LAKE MICHIGAN

STATION/POSITION TIME  TEMP    WIND        PRES    WAVE
                       AIR SEA DIR/SP/G            HT/PER
                 (UTC) (F)     (DEG/KT/KT) (MB)    (FT/S)
CHAMBERS ISLAND  1700   67     190/  9/ 15 1010.2F
N MID LAKE BUOY  1650   42 39  180/ 14/ 16 1011.3F   2/ 4
NORTHPORT PIER   1700   52     150/ 10/ 15 1010.5F
SISTER BAY       1704   67     180/ 13/ 17   N/A
ALGOMA LAKESHORE 1615          210/ 14/ 16   N/A
KEWAUNEE LAKESHO 1700   48     170/ 11/ 13 1010.2F
SHEBOYGAN LAKESH 1700   49     160/ 20/ 21 1011.7F
PORT WASHINGTON  1700   55     160/  4/  6 1012.5
MILWAUKEE LAKESH 1720   52     140/ 13/ 14   N/A
S MID LAKE BUOY  1650   44 41  160/ 10/ 12 1014.1F   0
KENOSHA   LAKESH 1700   59     150/ 10/ 14 1012.9F
$$

TC  - TEMPERATURE IN CELSIUS
VSB - VISIBILITY IN STATUTE MILES
WCI - WIND CHILL INDEX
HX  - HEAT INDEX





USA.gov is the U.S. government's official web portal to all federal, state and local government web resources and services.